Date String (YYYY-MM-DD hh:mm:ss) UTC,Instrument flags,Ambient pressure (hPa),Sample flow (lpm),Bypass flow (lpm),Sample temperature (°C),Ambient temperature (°C),ASC tube jacket temperature (°C),LED temperature (°C),Box temperature (°C),Sample RH (%),Span deviation,Mass concentration (μg/m³),Mass concentration (μg/m³),Mass concentration (μg/m³)
DateTimeUTC,F1_M11,P_M11,Q1_M11,Q2_M11,T1_M11,T2_M11,T3_M11,T4_M11,T5_M11,U1_M11,ZSPAN_M11,X0_M11,X2_M11,X1_M11
2022-09-16 08:00:00,,0827.5,5.00,0.00,30.8,29.2,00.0,39.6,32.5,23.6,0000.0,0008.84,0003.51,0003.07
2022-09-16 08:01:00,,0827.5,4.99,0.00,30.8,29.2,00.0,39.6,32.5,23.7,0000.0,0008.58,0003.49,0003.06
2022-09-16 08:02:00,,0827.5,5.01,0.00,30.8,29.2,00.0,39.5,32.5,23.7,0000.0,0008.63,0003.48,0003.06
2022-09-16 08:03:00,,0827.5,4.99,0.00,30.7,29.2,00.0,39.5,32.5,23.3,0000.0,0008.66,0003.48,0003.04
2022-09-16 08:04:00,,0827.5,5.01,0.00,30.8,29.2,00.0,39.5,32.5,23.0,0000.0,0008.42,0003.43,0003.02
2022-09-16 08:05:00,,0827.5,4.99,0.00,30.7,29.2,00.0,39.6,32.5,23.0,0000.0,0008.33,0003.39,0003.01
2022-09-16 08:06:00,,0827.6,5.00,0.00,30.8,29.2,00.0,39.6,32.5,23.1,0000.0,0008.29,0003.38,0002.99
2022-09-16 08:07:00,,0827.5,5.00,0.00,30.8,29.2,00.0,39.6,32.5,23.2,0000.0,0008.28,0003.38,0002.97
2022-09-16 08:08:00,,0827.5,4.99,0.00,30.7,29.2,00.0,39.6,32.5,23.2,0000.0,0007.02,0003.36,0002.96
2022-09-16 08:09:00,,0827.5,5.01,0.00,30.8,29.2,00.0,39.6,32.5,23.3,0000.0,0005.99,0003.38,0002.96
2022-09-16 08:10:00,,0827.5,4.99,0.00,30.7,29.2,00.0,39.6,32.5,23.0,0000.0,0006.71,0003.40,0002.96
2022-09-16 08:11:00,,0827.4,5.00,0.00,30.7,29.2,00.0,39.6,32.5,22.9,0000.0,0007.32,0003.39,0002.94
2022-09-16 08:12:00,,0827.4,5.00,0.00,30.7,29.2,00.0,39.6,32.5,22.9,0000.0,0007.36,0003.38,0002.94
2022-09-16 08:13:00,,0827.4,4.99,0.00,30.7,29.2,00.0,39.6,32.5,22.9,0000.0,0007.78,0003.38,0002.93
2022-09-16 08:14:00,,0827.4,5.01,0.00,30.7,29.1,00.0,39.6,32.5,22.9,0000.0,0007.77,0003.37,0002.93
2022-09-16 08:15:00,,0827.4,4.99,0.00,30.7,29.2,00.0,39.5,32.5,22.9,0000.0,0008.06,0003.36,0002.93
2022-09-16 08:16:00,,0827.4,5.01,0.00,30.7,29.2,00.0,39.5,32.5,22.8,0000.0,0008.25,0003.40,0002.93
2022-09-16 08:17:00,,0827.4,5.00,0.00,30.7,29.2,00.0,39.5,32.5,22.8,0000.0,0008.28,0003.41,0002.93
2022-09-16 08:18:00,,0827.4,4.99,0.00,30.7,29.2,00.0,39.5,32.4,22.8,0000.0,0008.42,0003.43,0002.95
2022-09-16 08:19:00,,0827.4,5.01,0.00,30.7,29.2,00.0,39.5,32.5,22.8,0000.0,0008.38,0003.42,0002.95
2022-09-16 08:20:00,,0827.3,4.99,0.00,30.7,29.2,00.0,39.5,32.5,22.8,0000.0,0008.27,0003.38,0002.94
2022-09-16 08:21:00,,0827.3,5.00,0.00,30.7,29.1,00.0,39.5,32.4,22.8,0000.0,0007.50,0003.34,0002.94
2022-09-16 08:22:00,,0827.4,5.00,0.00,30.7,29.1,00.0,39.5,32.4,22.9,0000.0,0006.89,0003.36,0002.96
2022-09-16 08:23:00,,0827.3,5.01,0.00,30.7,29.1,00.0,39.5,32.5,22.8,0000.0,0006.87,0003.38,0002.97
2022-09-16 08:24:00,,0827.3,4.99,0.00,30.7,29.1,00.0,39.5,32.5,22.8,0000.0,0006.19,0003.38,0002.99
2022-09-16 08:25:00,,0827.3,5.00,0.00,30.7,29.1,00.0,39.5,32.4,22.8,0000.0,0006.10,0003.41,0003.00
2022-09-16 08:26:00,,0827.3,5.00,0.00,30.7,29.1,00.0,39.5,32.4,22.9,0000.0,0005.60,0003.44,0003.03
2022-09-16 08:27:00,,0827.3,4.99,0.00,30.7,29.1,00.0,39.5,32.4,22.9,0000.0,0005.38,0003.43,0003.06
2022-09-16 08:28:00,,0827.3,5.01,0.00,30.7,29.1,00.0,39.5,32.4,22.9,0000.0,0005.39,0003.46,0003.08
2022-09-16 08:29:00,,0827.2,5.00,0.00,30.7,29.0,00.0,39.5,32.4,23.1,0000.0,0005.31,0003.49,0003.10
2022-09-16 08:30:00,,0827.2,5.00,0.00,30.7,29.1,00.0,39.5,32.4,23.3,0000.0,0005.29,0003.50,0003.11
2022-09-16 08:31:00,,0827.2,5.00,0.00,30.7,29.0,00.0,39.5,32.4,23.3,0000.0,0005.38,0003.53,0003.14
2022-09-16 08:32:00,,0827.3,5.01,0.00,30.7,29.0,00.0,39.5,32.4,23.3,0000.0,0006.33,0003.56,0003.16
2022-09-16 08:33:00,,0827.1,4.98,0.00,30.7,29.0,00.0,39.5,32.4,23.3,0000.0,0006.79,0003.57,0003.17
2022-09-16 08:34:00,,0827.3,5.00,0.00,30.7,29.0,00.0,39.5,32.4,23.2,0000.0,0006.72,0003.57,0003.18
2022-09-16 08:35:00,,0827.2,5.00,0.00,30.7,29.0,00.0,39.5,32.3,23.2,0000.0,0006.87,0003.59,0003.19
2022-09-16 08:36:00,,0827.2,4.99,0.00,30.7,29.0,00.0,39.5,32.3,23.4,0000.0,0006.99,0003.60,0003.21
2022-09-16 08:37:00,,0827.2,5.01,0.00,30.6,29.0,00.0,39.5,32.4,23.4,0000.0,0007.09,0003.62,0003.21
2022-09-16 08:38:00,,0827.2,5.00,0.00,30.6,29.0,00.0,39.5,32.4,23.4,0000.0,0007.31,0003.65,0003.22
2022-09-16 08:39:00,,0827.2,4.99,0.00,30.6,29.0,00.0,39.5,32.4,23.3,0000.0,0007.41,0003.64,0003.22
2022-09-16 08:40:00,,0827.2,5.01,0.00,30.6,29.0,00.0,39.5,32.4,23.2,0000.0,0007.38,0003.62,0003.22
2022-09-16 08:41:00,,0827.2,4.99,0.00,30.6,29.0,00.0,39.5,32.4,23.4,0000.0,0007.41,0003.62,0003.23
2022-09-16 08:42:00,,0827.2,5.01,0.00,30.6,29.0,00.0,39.5,32.4,23.5,0000.0,0007.56,0003.63,0003.24
2022-09-16 08:43:00,,0827.2,4.99,0.00,30.6,29.0,00.0,39.5,32.4,23.6,0000.0,0007.08,0003.67,0003.24
2022-09-16 08:44:00,,0827.2,5.00,0.00,30.6,29.0,00.0,39.5,32.3,23.6,0000.0,0006.71,0003.70,0003.25
2022-09-16 08:45:00,,0827.2,5.01,0.00,30.6,29.0,00.0,39.5,32.3,23.7,0000.0,0006.85,0003.73,0003.25
2022-09-16 08:46:00,,0827.2,4.98,0.00,30.6,28.9,00.0,39.5,32.3,23.7,0000.0,0006.99,0003.78,0003.27
2022-09-16 08:47:00,,0827.2,5.01,0.00,30.6,28.9,00.0,39.4,32.3,23.8,0000.0,0007.19,0003.80,0003.28
2022-09-16 08:48:00,,0827.1,5.01,0.00,30.6,29.0,00.0,39.4,32.3,23.8,0000.0,0007.42,0003.81,0003.29
2022-09-16 08:49:00,,0827.1,4.99,0.00,30.6,28.9,00.0,39.4,32.3,23.8,0000.0,0007.34,0003.82,0003.31
2022-09-16 08:50:00,,0827.1,5.01,0.00,30.6,28.9,00.0,39.4,32.3,23.7,0000.0,0007.35,0003.83,0003.33
2022-09-16 08:51:00,,0827.1,4.99,0.00,30.6,28.9,00.0,39.4,32.3,23.8,0000.0,0007.55,0003.88,0003.36
2022-09-16 08:52:00,,0827.3,5.00,0.00,30.6,28.9,00.0,39.4,32.3,23.9,0000.0,0007.66,0003.92,0003.37
2022-09-16 08:53:00,,0827.0,5.01,0.00,30.6,28.9,00.0,39.4,32.3,23.9,0000.0,0007.67,0003.97,0003.39
2022-09-16 08:54:00,,0827.4,5.01,0.00,30.6,28.9,00.0,39.4,32.3,23.7,0000.0,0007.67,0003.98,0003.41
2022-09-16 08:55:00,,0827.3,5.00,0.00,30.6,28.9,00.0,39.4,32.3,24.0,0000.0,0007.66,0003.99,0003.42
2022-09-16 08:56:00,,0827.4,5.01,0.00,30.6,28.9,00.0,39.4,32.3,24.2,0000.0,0007.83,0004.02,0003.45
2022-09-16 08:57:00,,0827.0,5.01,0.00,30.6,28.9,00.0,39.4,32.3,24.0,0000.0,0008.45,0004.02,0003.47
2022-09-16 08:58:00,,0827.1,4.99,0.00,30.6,28.9,00.0,39.4,32.3,24.1,0000.0,0008.49,0004.06,0003.48
2022-09-16 08:59:00,,0827.0,5.01,0.00,30.5,28.9,00.0,39.4,32.3,24.1,0000.0,0008.53,0004.09,0003.51
